Flag for United Kingdom Weather past 2 weeks in St. Peter Port, Guernsey, United Kingdom

Now
63 °F

Passing clouds.


Feels Like: 63 °F
Forecast: 61 / 64 °F
Wind: 6 mph from Southwest

Location: Guernsey Airport

Current Time: Sep 30, 2014 at 7:40:21 PM

Latest Report: Sep 30, 2014 at 6:50 PM


Visibility: N/A

Pressure: 30.27 "Hg

Humidity: 94%

Dew point: 61 °F

Location of St. Peter PortLocation

Historic Weather in St. Peter Port — Graph

°F

St. Peter Port temperature yesterday

Maximum temperature yesterday: 66 °F (at 3:50 PM)
Minimum temperature yesterday: 59 °F (at 3:50 AM)
Average temperature yesterday: 61 °F

Past Weeks' High & Low Weather Summary

 TemperatureHumidityPressure
High75 °F (Sep 16, 2:20 PM)100% (Sep 15, 7:50 PM)30.33 "Hg (Sep 15, 7:50 PM)
Low52 °F (Sep 23, 6:50 AM)57% (Sep 16, 2:50 PM)29.71 "Hg (Sep 17, 3:20 PM)
Average63 °F86%30.08 "Hg
* Reported Sep 15 6:20 PM — Sep 30 6:20 PM, St. Peter Port, Weather by CustomWeather, © 2014

Note: Actual official high and low records may vary slightly from our data, if they occured in-between our weather recording intervals... More about our weather records

Advertising

St. Peter Port weather history for previous 24 hours

 ConditionsComfort  
Time TempWeatherWind HumidityBarometerVisibility
6:20 PM
Sep 30
63 °FPassing clouds.7 mph94%30.27 "HgN/A
5:50 PM64 °FPassing clouds.8 mph88%30.27 "HgN/A
5:20 PM64 °FPassing clouds.9 mph88%30.27 "HgN/A
4:50 PM66 °FPassing clouds.8 mph83%30.27 "HgN/A
4:20 PM66 °FPassing clouds.9 mph83%30.27 "HgN/A
3:50 PM66 °FPassing clouds.10 mph83%30.27 "HgN/A
3:20 PM66 °FPassing clouds.10 mph83%30.27 "HgN/A
2:50 PM66 °FPassing clouds.13 mph83%30.27 "HgN/A
2:20 PM66 °FPassing clouds.15 mph83%30.27 "HgN/A
1:50 PM66 °FScattered clouds.12 mph88%30.27 "HgN/A
1:20 PM64 °FPartly sunny.9 mph94%30.30 "HgN/A
12:50 PM64 °FPartly sunny.10 mph94%30.30 "HgN/A
12:20 PM64 °FPartly sunny.10 mph88%30.30 "HgN/A
11:50 AM64 °FScattered clouds.13 mph88%30.30 "HgN/A
11:20 AM64 °FPartly sunny.14 mph88%30.27 "HgN/A
10:50 AM63 °FPartly sunny.13 mph94%30.27 "HgN/A
10:20 AM63 °FPartly sunny.12 mph100%30.27 "HgN/A
9:50 AM63 °FPartly sunny.12 mph94%30.27 "HgN/A
9:20 AM63 °FPartly sunny.10 mph94%30.27 "HgN/A
8:50 AM63 °FPassing clouds.12 mph94%30.24 "HgN/A
8:20 AM61 °FPassing clouds.10 mph100%30.24 "HgN/A
7:50 AM61 °FPassing clouds.10 mph100%30.24 "HgN/A
7:20 AM61 °FPassing clouds.10 mph100%30.24 "HgN/A
6:50 AM61 °FPassing clouds.10 mph100%30.24 "HgN/A
6:20 AM61 °FPassing clouds.12 mph100%30.21 "HgN/A
5:50 AM61 °FPartly cloudy.10 mph100%30.21 "HgN/A
5:20 AM61 °FPartly cloudy.10 mph100%30.21 "HgN/A
4:50 AM61 °FPartly cloudy.12 mph100%30.21 "HgN/A
4:20 AM61 °FPartly cloudy.9 mph100%30.21 "HgN/A
3:50 AM61 °FPartly cloudy.8 mph100%30.21 "HgN/A
8:50 PM
Sep 29
59 °FClear.5 mph94%30.21 "Hg10 mi
8:20 PM59 °FClear.No wind100%30.18 "Hg10 mi
7:50 PM59 °FSunny.3 mph94%30.18 "Hg10 mi
7:20 PM59 °FSunny.2 mph94%30.18 "Hg10 mi
Weather by CustomWeather, © 2014

See weather overviewHow to use our weather pages